LA6LOA Weather Reports


time (UTC)temp
C
wind
direction
speed
KPH
gust
KPH
rain 1hr
cm
rain 24hr
cm
rain mn
cm
humidity
%
barometer
mb
20260506200058 3 355 0.0 0.0 0.00 0.00 0.00 100 1009.8
20260506195558 4 355 0.0 0.0 0.00 0.00 0.00 100 1009.8
20260506195058 4 355 0.0 0.0 0.00 0.00 0.00 100 1009.7
20260506194558 4 355 0.0 0.0 0.00 0.00 0.00 100 1009.7
20260506194058 5 355 0.0 0.0 0.00 0.00 0.00 100 1009.7
20260506193558 4 355 0.0 0.0 0.00 0.00 0.00 100 1009.7
20260506193058 5 355 0.0 0.0 0.00 0.00 0.00 100 1009.7
20260506192558 5 355 0.0 0.0 0.00 0.00 0.00 100 1009.7
20260506192058 5 355 0.0 0.0 0.00 0.00 0.00 100 1009.6
20260506191558 5 355 0.0 0.0 0.00 0.00 0.00 100 1009.6
20260506191058 5 355 0.0 0.0 0.00 0.00 0.00 100 1009.5
20260506190558 5 355 0.0 0.0 0.00 0.00 0.00 100 1009.6
20260506190058 5 355 0.0 0.0 0.00 0.00 0.00 100 1009.5
20260506185558 5 355 0.0 0.0 0.00 0.00 0.00 100 1009.5
20260506185058 5 355 0.0 9.7 0.00 0.00 0.00 100 1009.5
20260506184558 5 326 0.0 0.0 0.00 0.00 0.00 100 1009.5
20260506184058 5 326 0.0 6.4 0.00 0.00 0.00 100 1009.5
20260506183558 5 327 0.0 8.0 0.00 0.00 0.00 100 1009.4
20260506183058 5 333 8.0 9.7 0.00 0.00 0.00 100 1009.5
20260506182558 5 354 8.0 11.3 0.00 0.00 0.00 100 1009.4
20260506182058 5 343 9.7 11.3 0.00 0.00 0.00 100 1009.5
20260506181558 5 327 8.0 9.7 0.00 0.00 0.00 100 1009.5
20260506181058 5 337 8.0 11.3 0.00 0.00 0.00 100 1009.4
20260506180558 5 341 8.0 11.3 0.00 0.00 0.00 100 1009.4
20260506180058 5 351 9.7 12.9 0.00 0.00 0.00 100 1009.4
20260506175558 5 334 11.3 11.3 0.00 0.00 0.00 100 1009.4
20260506175058 5 352 9.7 12.9 0.00 0.00 0.00 100 1009.4
20260506174558 5 331 11.3 12.9 0.00 0.00 0.00 100 1009.5
20260506174058 5 338 9.7 11.3 0.00 0.00 0.00 100 1009.5
20260506173558 5 345 9.7 9.7 0.00 0.00 0.00 100 1009.4
20260506173058 5 0 9.7 12.9 0.00 0.00 0.00 100 1009.4
20260506172558 5 348 12.9 14.5 0.00 0.00 0.00 100 1009.4
20260506172058 5 344 12.9 16.1 0.00 0.00 0.00 100 1009.3
20260506171558 5 348 11.3 12.9 0.00 0.00 0.00 100 1009.3
20260506171058 5 7 8.0 14.5 0.00 0.00 0.00 100 1009.3
20260506170558 5 8 8.0 16.1 0.00 0.00 0.00 100 1009.2
20260506170058 5 348 14.5 17.7 0.00 0.00 0.00 100 1009.2
20260506165558 5 1 11.3 16.1 0.00 0.00 0.00 100 1009.2
20260506165058 4 352 11.3 17.7 0.00 0.00 0.00 100 1009.1
20260506164558 5 344 17.7 17.7 0.00 0.00 0.00 100 1009.1
20260506164058 5 5 12.9 16.1 0.00 0.00 0.00 100 1009.1
20260506163558 5 348 14.5 16.1 0.00 0.00 0.00 100 1009.0
20260506163058 5 18 14.5 17.7 0.00 0.00 0.00 100 1009.0
20260506162558 5 352 16.1 17.7 0.00 0.00 0.00 100 1008.9
20260506162058 5 5 11.3 17.7 0.00 0.00 0.00 100 1008.9
20260506161558 4 358 16.1 19.3 0.00 0.00 0.00 100 1008.9
20260506161059 4 355 17.7 19.3 0.00 0.00 0.00 100 1008.8
20260506160559 4 9 12.9 20.9 0.00 0.00 0.00 100 1008.7
20260506160059 5 352 19.3 20.9 0.00 0.00 0.00 100 1008.7
20260506155559 5 343 14.5 19.3 0.00 0.00 0.00 100 1008.6
20260506155059 5 5 12.9 19.3 0.00 0.00 0.00 100 1008.5
20260506154559 5 1 12.9 20.9 0.00 0.00 0.00 100 1008.5
20260506154059 5 8 14.5 19.3 0.00 0.00 0.00 100 1008.5
20260506153559 5 8 12.9 19.3 0.00 0.00 0.00 100 1008.4
20260506153059 5 354 16.1 20.9 0.00 0.00 0.00 100 1008.3
20260506152559 5 343 17.7 20.9 0.00 0.00 0.00 100 1008.2
20260506152059 4 352 16.1 19.3 0.00 0.00 0.00 100 1008.2
20260506151559 5 12 14.5 19.3 0.00 0.00 0.00 100 1008.0
20260506151059 5 352 16.1 17.7 0.00 0.00 0.00 100 1007.9
20260506150559 5 343 16.1 19.3 0.00 0.00 0.00 100 1007.9
20260506150059 5 358 14.5 19.3 0.00 0.00 0.00 100 1008.0
20260506145559 5 352 16.1 20.9 0.00 0.00 0.00 100 1008.0
20260506145059 5 336 14.5 19.3 0.00 0.00 0.00 100 1008.0
20260506144559 5 4 14.5 20.9 0.00 0.00 0.00 100 1008.1
20260506144059 5 354 14.5 19.3 0.00 0.00 0.00 100 1008.1
20260506143559 5 8 12.9 17.7 0.00 0.00 0.00 100 1008.0
20260506143059 5 11 11.3 20.9 0.00 0.00 0.00 100 1008.1
20260506142559 5 343 17.7 20.9 0.00 0.00 0.00 100 1008.0
20260506142059 5 0 16.1 20.9 0.00 0.00 0.00 100 1008.1
20260506141559 5 338 14.5 17.7 0.00 0.00 0.00 100 1008.0
20260506141059 5 347 16.1 17.7 0.00 0.00 0.00 100 1008.1
20260506140559 5 14 9.7 16.1 0.00 0.00 0.00 100 1008.1
20260506140059 5 4 12.9 16.1 0.00 0.00 0.00 100 1008.1
20260506135559 5 5 12.9 17.7 0.00 0.00 0.00 100 1008.1
20260506135059 5 352 14.5 19.3 0.00 0.00 0.00 100 1008.0
20260506134559 5 345 16.1 20.9 0.00 0.00 0.00 100 1008.0
20260506134059 5 358 16.1 20.9 0.00 0.00 0.00 100 1008.0
20260506133559 5 12 16.1 20.9 0.00 0.00 0.00 100 1008.0
20260506133059 5 347 19.3 19.3 0.00 0.00 0.00 100 1007.9
20260506132559 5 347 17.7 19.3 0.00 0.00 0.00 100 1007.9
20260506132059 5 345 17.7 20.9 0.00 0.00 0.00 100 1007.9
20260506131559 5 348 16.1 19.3 0.00 0.00 0.00 100 1007.9
20260506131059 5 350 12.9 19.3 0.00 0.00 0.00 100 1007.9
20260506130559 5 354 11.3 17.7 0.00 0.00 0.00 100 1007.9
20260506130059 5 5 12.9 19.3 0.00 0.00 0.00 100 1007.8
20260506125559 5 348 16.1 16.1 0.00 0.00 0.00 100 1007.7
20260506125059 5 341 12.9 19.3 0.00 0.00 0.00 100 1007.7
20260506124559 5 347 17.7 17.7 0.00 0.00 0.00 100 1007.7
20260506124059 5 348 14.5 17.7 0.00 0.00 0.00 100 1007.6
20260506123559 5 1 12.9 19.3 0.00 0.00 0.00 100 1007.6
20260506123059 5 350 17.7 20.9 0.00 0.00 0.00 100 1007.6
20260506122559 5 351 19.3 19.3 0.00 0.00 0.00 100 1007.5
20260506122059 5 340 14.5 20.9 0.00 0.00 0.00 100 1007.5
20260506121559 5 15 11.3 20.9 0.00 0.00 0.00 100 1007.4
20260506121059 5 348 19.3 20.9 0.00 0.00 0.00 100 1007.4
20260506120559 5 2 11.3 20.9 0.00 0.00 0.00 100 1007.3
20260506120059 5 350 16.1 20.9 0.00 0.00 0.00 100 1007.2
20260506115559 5 348 19.3 20.9 0.00 0.00 0.00 100 1007.2
20260506115059 5 354 16.1 19.3 0.00 0.00 0.00 100 1007.2
20260506114559 5 358 11.3 17.7 0.00 0.00 0.00 100 1007.1
20260506114059 5 350 12.9 17.7 0.00 0.00 0.00 100 1007.1
20260506113559 5 347 17.7 17.7 0.00 0.00 0.00 100 1007.1
20260506113100 5 352 11.3 16.1 0.00 0.00 0.00 100 1007.0
20260506112600 5 348 9.7 14.5 0.00 0.00 0.00 100 1007.0
20260506112100 5 351 0.0 0.0 0.00 0.00 0.00 100 1006.9
20260506111600 5 351 0.0 9.7 0.00 0.00 0.00 100 1006.9
20260506111100 5 331 9.7 11.3 0.00 0.00 0.00 100 1006.9
20260506110600 5 324 0.0 11.3 0.00 0.00 0.00 100 1006.9
20260506110100 5 323 0.0 9.7 0.00 0.00 0.00 100 1006.8
20260506105600 5 340 6.4 11.3 0.00 0.00 0.00 100 1006.8
20260506105100 5 334 9.7 9.7 0.00 0.00 0.00 100 1006.8
20260506104600 5 337 9.7 11.3 0.00 0.00 0.00 100 1006.8
20260506104100 5 347 9.7 12.9 0.00 0.00 0.00 100 1006.7
20260506103600 5 337 0.0 0.0 0.00 0.00 0.00 100 1006.7
20260506103100 5 337 0.0 0.0 0.00 0.00 0.00 100 1006.7
20260506102600 4 337 0.0 0.0 0.00 0.00 0.00 100 1006.7
20260506102100 5 337 0.0 11.3 0.00 0.00 0.00 100 1006.6
20260506101600 5 324 0.0 0.0 0.00 0.00 0.00 100 1006.6
20260506101100 5 324 0.0 0.0 0.00 0.00 0.00 100 1006.5
20260506100600 5 324 0.0 0.0 0.00 0.00 0.00 100 1006.5
20260506100100 5 324 0.0 0.0 0.00 0.00 0.00 100 1006.5
20260506095600 5 324 0.0 0.0 0.00 0.00 0.00 100 1006.5
20260506095100 5 324 0.0 9.7 0.00 0.00 0.00 100 1006.4
20260506094600 5 336 1.6 11.3 0.00 0.00 0.00 100 1006.4
20260506094100 5 2 8.0 11.3 0.00 0.00 0.00 100 1006.5
20260506093600 5 22 8.0 11.3 0.00 0.00 0.00 100 1006.5
20260506093100 4 337 8.0 11.3 0.00 0.00 0.00 100 1006.5
20260506092600 4 329 11.3 14.5 0.00 0.00 0.00 100 1006.5
20260506092100 5 350 11.3 12.9 0.00 0.00 0.00 100 1006.5
20260506091600 4 329 11.3 12.9 0.00 0.00 0.00 100 1006.5
20260506091100 5 2 8.0 12.9 0.00 0.00 0.00 100 1006.4
20260506090600 4 354 9.7 11.3 0.00 0.00 0.00 100 1006.4
20260506090100 4 347 11.3 12.9 0.00 0.00 0.00 100 1006.3
20260506085600 5 337 11.3 14.5 0.00 0.00 0.00 100 1006.3
20260506085100 4 336 0.0 0.0 0.00 0.00 0.00 100 1006.2
20260506084600 4 336 0.0 9.7 0.00 0.00 0.00 100 1006.2
20260506084100 4 348 8.0 11.3 0.00 0.00 0.00 100 1006.1
20260506083600 4 350 0.0 0.0 0.00 0.00 0.00 100 1006.1
20260506083100 4 350 0.0 0.0 0.00 0.00 0.00 100 1006.0
20260506082600 4 350 0.0 9.7 0.00 0.00 0.00 100 1006.0
20260506082100 5 338 0.0 0.0 0.00 0.00 0.00 100 1005.9
20260506081600 4 338 0.0 0.0 0.00 0.00 0.00 100 1005.9
20260506081100 4 338 0.0 6.4 0.00 0.00 0.00 100 1005.9
20260506080600 4 337 1.6 8.0 0.00 0.00 0.00 100 1005.9
20260506073100 4 329 0.0 0.0 0.00 0.00 0.00 100 1005.4
20260506072600 4 329 0.0 11.3 0.00 0.00 0.00 100 1005.4
20260506072100 4 350 0.0 9.7 0.00 0.00 0.00 100 1005.3
20260506071601 4 344 8.0 8.0 0.00 0.00 0.00 100 1005.2
20260506071101 4 351 6.4 11.3 0.00 0.00 0.00 100 1005.2
20260506070601 4 337 9.7 11.3 0.00 0.00 0.00 100 1005.1
20260506062101 4 345 0.0 0.0 0.00 0.00 0.00 100 1004.4
20260506061601 4 345 0.0 11.3 0.00 0.00 0.00 100 1004.3
20260506061101 4 348 8.0 11.3 0.00 0.00 0.00 100 1004.2
20260506060601 4 344 8.0 11.3 0.00 0.00 0.00 100 1004.1
20260506051101 3 14 9.7 14.5 0.00 0.00 0.00 100 1003.8
20260506050601 4 11 8.0 12.9 0.00 0.00 0.00 100 1003.8
20260506045101 4 18 9.7 17.7 0.00 0.00 0.00 100 1003.7
20260506044601 3 4 9.7 14.5 0.00 0.00 0.00 100 1003.7
20260506044101 3 14 11.3 16.1 0.00 0.00 0.00 100 1003.6
20260506043601 3 19 12.9 16.1 0.00 0.00 0.00 100 1003.6
20260506043101 3 4 14.5 19.3 0.00 0.00 0.00 100 1003.5
20260506042601 3 341 9.7 17.7 0.00 0.00 0.00 100 1003.5
20260506042101 3 18 11.3 19.3 0.00 0.00 0.00 100 1003.5
20260506041601 4 4 16.1 19.3 0.00 0.00 0.00 100 1003.4
20260506041101 5 26 11.3 17.7 0.00 0.00 0.00 100 1003.3
20260506040601 8 5 0.0 9.7 0.00 0.00 0.00 100 1003.4
20260506040101 5 52 8.0 16.1 0.00 0.00 0.00 100 1003.3
20260506035601 6 80 6.4 12.9 0.00 0.00 0.00 100 1003.3
20260506035101 5 78 9.7 19.3 0.00 0.00 0.00 100 1003.2
20260506034602 4 29 0.0 14.5 0.00 0.00 0.00 100 1003.2
20260506034102 4 2 11.3 12.9 0.00 0.00 0.00 100 1003.2
20260506033602 4 70 8.0 9.7 0.00 0.00 0.00 100 1003.1
20260506033102 5 182 0.0 0.0 0.00 0.00 0.00 100 1003.1
20260506032602 6 182 0.0 0.0 0.00 0.00 0.00 100 1003.1
20260506032102 6 182 0.0 0.0 0.00 0.00 0.00 100 1003.1
20260506031602 5 182 0.0 0.0 0.00 0.00 0.00 100 1003.0
20260506031102 5 182 0.0 0.0 0.00 0.00 0.00 100 1003.0
20260506030602 6 182 0.0 0.0 0.00 0.00 0.00 100 1003.0
20260506025602 4 182 0.0 0.0 0.00 0.00 0.00 100 1002.8
20260506025102 5 182 0.0 1.6 0.00 0.00 0.00 100 1002.8
20260506024602 4 154 0.0 0.0 0.00 0.00 0.00 100 1002.8
20260506024102 3 154 0.0 0.0 0.00 0.00 0.00 100 1002.8
20260506023602 3 154 0.0 0.0 0.00 0.00 0.00 100 1002.8
20260506023102 3 154 0.0 6.4 0.00 0.00 0.00 100 1002.8
20260506022602 4 165 0.0 0.0 0.00 0.00 0.00 100 1002.8
20260506022102 3 165 0.0 0.0 0.00 0.00 0.00 100 1002.7
20260506021602 2 165 0.0 0.0 0.00 0.00 0.00 100 1002.7
20260506021102 2 165 0.0 0.0 0.00 0.00 0.00 100 1002.7
20260506020602 1 165 0.0 0.0 0.00 0.00 0.00 100 1002.7
20260506015602 1 165 0.0 0.0 0.00 0.00 0.00 100 1002.6
20260506015102 1 165 0.0 0.0 0.00 0.00 0.00 100 1002.5
20260506014602 1 165 0.0 0.0 0.00 0.00 0.00 100 1002.5
20260506014102 1 165 0.0 0.0 0.00 0.00 0.00 100 1002.4
20260506013602 0 165 0.0 0.0 0.00 0.00 0.00 100 1002.4
20260506013102 0 165 0.0 0.0 0.00 0.00 0.00 100 1002.3
20260506012602 1 165 0.0 0.0 0.00 0.00 0.00 100 1002.3
20260506012102 1 165 0.0 0.0 0.00 0.00 0.00 100 1002.3
20260506011602 1 165 0.0 0.0 0.00 0.00 0.00 100 1002.3
20260506011102 1 165 0.0 0.0 0.00 0.00 0.00 100 1002.3
20260506010602 1 165 0.0 0.0 0.00 0.00 0.00 100 1002.4
20260506005602 0 165 0.0 0.0 0.00 0.00 0.00 100 1002.3
20260506005102 0 165 0.0 0.0 0.00 0.00 0.00 100 1002.3
20260506004602 0 165 0.0 0.0 0.00 0.00 0.00 100 1002.3
20260506004102 0 165 0.0 0.0 0.00 0.00 0.00 100 1002.2
20260506003602 0 165 0.0 0.0 0.00 0.00 0.00 100 1002.2
20260506003102 0 165 0.0 0.0 0.00 0.00 0.00 100 1002.2
20260506002602 0 165 0.0 0.0 0.00 0.00 0.00 100 1002.2
20260506002102 0 165 0.0 0.0 0.00 0.00 0.00 100 1002.2
20260506001602 0 165 0.0 0.0 0.00 0.00 0.00 100 1002.2
20260506001102 0 165 0.0 0.0 0.00 0.00 0.00 100 1002.2
20260506000602 0 165 0.0 0.0 0.00 0.00 0.00 100 1002.2
20260505235602 0 165 0.0 0.0 0.00 0.00 0.00 100 1002.2
20260505235102 0 165 0.0 0.0 0.00 0.00 0.00 100 1002.1
20260505234602 0 165 0.0 0.0 0.00 0.00 0.00 100 1002.1
20260505234102 0 165 0.0 0.0 0.00 0.00 0.00 100 1002.1
20260505233602 0 165 0.0 0.0 0.00 0.00 0.00 100 1002.1
20260505233102 1 165 0.0 0.0 0.00 0.00 0.00 100 1002.1
20260505232602 1 165 0.0 6.4 0.00 0.00 0.00 100 1002.1
20260505232102 1 172 0.0 0.0 0.00 0.00 0.00 100 1002.1
20260505231602 1 172 0.0 0.0 0.00 0.00 0.00 100 1002.1
20260505231103 1 172 0.0 0.0 0.00 0.00 0.00 100 1002.1
20260505230603 1 172 0.0 0.0 0.00 0.00 0.00 100 1002.0
20260505225603 2 172 0.0 0.0 0.00 0.00 0.00 100 1002.1
20260505225103 2 172 0.0 0.0 0.00 0.00 0.00 100 1002.0
20260505224603 2 172 0.0 0.0 0.00 0.00 0.00 100 1002.0
20260505224103 2 172 0.0 0.0 0.00 0.00 0.00 100 1002.0
20260505223603 2 172 0.0 0.0 0.00 0.00 0.00 100 1002.0
20260505223103 2 172 0.0 0.0 0.00 0.00 0.00 100 1002.0
20260505222603 2 172 0.0 0.0 0.00 0.00 0.00 100 1002.0
20260505222103 2 172 0.0 0.0 0.00 0.00 0.00 100 1001.9
20260505221603 2 172 0.0 9.7 0.00 0.00 0.00 100 1001.8
20260505221103 2 126 0.0 9.7 0.00 0.00 0.00 100 1001.9
20260505220603 2 156 1.6 11.3 0.00 0.00 0.00 100 1001.9
20260505215603 2 153 1.6 12.9 0.00 0.00 0.00 100 1001.9
20260505215103 2 135 3.2 11.3 0.00 0.00 0.00 100 1001.9
20260505214603 2 88 1.6 9.7 0.00 0.00 0.00 100 1001.9
20260505214103 2 108 3.2 11.3 0.00 0.00 0.00 100 1001.9
20260505213603 2 125 0.0 11.3 0.00 0.00 0.00 100 1001.8
20260505213103 2 57 8.0 11.3 0.00 0.00 0.00 100 1001.8
20260505212603 2 133 8.0 11.3 0.00 0.00 0.00 100 1001.8
20260505212103 2 147 0.0 9.7 0.00 0.00 0.00 100 1001.9
20260505211603 2 133 1.6 12.9 0.00 0.00 0.00 100 1001.9
20260505211103 2 97 0.0 12.9 0.00 0.00 0.00 100 1001.9
20260505210603 3 105 12.9 16.1 0.00 0.00 0.00 100 1002.0
20260505210103 3 123 9.7 14.5 0.00 0.00 0.00 100 1002.0
20260505205603 3 123 12.9 17.7 0.00 0.00 0.00 100 1002.0
20260505205103 3 119 9.7 17.7 0.00 0.00 0.00 100 1002.0
20260505204603 3 146 8.0 14.5 0.00 0.00 0.00 100 1002.1
20260505204103 3 125 6.4 14.5 0.00 0.00 0.00 100 1002.2
20260505203603 3 119 11.3 16.1 0.00 0.00 0.00 100 1002.2
20260505203103 3 109 14.5 16.1 0.00 0.00 0.00 100 1002.2
20260505202603 3 133 6.4 16.1 0.00 0.00 0.00 100 1002.2
20260505202103 3 111 9.7 14.5 0.00 0.00 0.00 100 1002.1
20260505201603 3 108 14.5 17.7 0.00 0.00 0.00 100 1002.2
20260505201103 3 91 6.4 12.9 0.00 0.00 0.00 100 1002.1
20260505200603 3 91 11.3 11.3 0.00 0.00 0.00 100 1002.1